Content
SEND FEEDBACK

Daily
Averages
Monthly
Summary
Turkmenistan

ASHGABAT, TURKMENISTAN


Home > Asia > Turkmenistan
Elevation: 236 meters     Latitude: 37 58N     Longitude: 058 20E

WEATHER
 
SELECT A DAY
Number of Records: 177,096;   Date Range: 3/15/97 - 7/20/14
 
SHARE

PRINT THIS DATA

[ ← Previous Day ]
WEATHER ALMANAC - 25 JANUARY, 2013
[ Next Day → ]
[ °F ]   °C
Weather ElementAverageHighLow
Temperature12.2 °C19 °C (4:00 pm)6 °C (8:00 am)
Dewpoint1.4 °C4 °C (6:00 pm)0 °C (5:00 am)
Humidity47.1 %71 % (11:00 pm)20 % (5:00 pm)
Barometer1017.3 hPa1019.3 hPa (8:00 am)1015.2 hPa (11:00 pm)
Wind Speed9.2 km/h18 km/h (5:00 pm)
Weather ElementAverage
Visibility9.8 km
Wind DirectionSE (139.7 °)

Weather ElementTotal
Precipitation---
Heating Degree Days5.8 (Base 18.3)
Growing Degree Days2.5 (Base 10)
Averaged from 31 records on 25 January, 2013
WEATHER CONDITIONS BREAKOUT
WIND DIRECTION BREAKOUT
WEATHER BY HOUR - 25 JANUARY, 2013
[ °F ]   °C
Local TimeTemperatureDewpointHumidityBarometerVisibilityWind DirectionWind SpeedGust SpeedPrecipitationEventsConditions
1:00 AM10 °C1 °C54 %1016.3 hPa10 kmCalmMostly Cloudy
2:00 AM10 °C1.1 °C42 %1016.3 hPa9.7 kmSSW (200°)7.2 km/hScattered Clouds
2:00 AM9 °C1 °C58 %1016.3 hPa10 kmSSW (210°)7.2 km/hPartly Cloudy
3:00 AM9 °C1 °C58 %1016.3 hPa10 kmSouth (170°)14.3 km/hClear
4:00 AM8 °C1 °C62 %1016.3 hPa10 kmSouth (180°)14.3 km/hClear
5:00 AM8.9 °C0 °C41 %1017.6 hPa9.7 kmSouth (180°)3.5 km/h
5:00 AM9 °C0 °C54 %1017.3 hPa10 kmVariable3.5 km/hClear
6:00 AM8 °C0 °C57 %1017.3 hPa10 kmESE (120°)7.2 km/hClear
7:00 AM7 °C0 °C61 %1017.3 hPa10 kmNNW (340°)7.2 km/hClear
8:00 AM7.2 °C2.2 °C61 %1019.3 hPa9.7 kmSW (230°)7.2 km/h
8:00 AM6 °C0 °C66 %1017.9 hPa10 kmSW (230°)10.8 km/hClear
9:00 AM8 °C1 °C62 %1017.9 hPa10 kmWSW (250°)14.3 km/hScattered Clouds
10:00 AM10 °C2 °C58 %1019 hPa10 kmWest (270°)7.2 km/hScattered Clouds
11:00 AM13.3 °C0.6 °C29 %1019.3 hPa9.7 kmCalmClear
11:00 AM14 °C1 °C41 %1019 hPa10 kmVariable3.5 km/hScattered Clouds
12:00 PM16 °C0 °C34 %1019 hPa10 kmEast (80°)7.2 km/hPartly Cloudy
1:00 PM17 °C0 °C32 %1017.9 hPa10 kmEast (90°)14.3 km/hPartly Cloudy
2:00 PM17.2 °C1.1 °C22 %1017.9 hPa9.7 kmEast (90°)14.3 km/hScattered Clouds
2:00 PM18 °C1 °C32 %1017.3 hPa10 kmESE (120°)14.3 km/hPartly Cloudy
3:00 PM18 °C1 °C32 %1017.3 hPa10 kmEast (100°)14.3 km/hClear
4:00 PM19 °C1 °C30 %1017.3 hPa10 kmSE (130°)14.3 km/hClear
5:00 PM18.9 °C1.7 °C20 %1016.9 hPa9.7 kmSE (130°)18 km/h
5:00 PM19 °C3 °C35 %1016.3 hPa10 kmSE (130°)18 km/hClear
6:00 PM17 °C4 °C42 %1016.3 hPa10 kmSSE (150°)7.2 km/hPartly Cloudy
7:00 PM15 °C2 °C42 %1016.3 hPa10 kmESE (110°)10.8 km/hClear
8:00 PM14.4 °C2.8 °C34 %1016.3 hPa9.7 kmESE (120°)7.2 km/h
8:00 PM14 °C3 °C48 %1016.3 hPa10 kmSE (130°)14.3 km/hClear
9:00 PM11 °C3 °C58 %1016.3 hPa10 kmVariable3.5 km/hClear
10:00 PM9 °C3 °C66 %1016.3 hPa10 kmSSE (160°)7.2 km/hClear
11:00 PM8.3 °C2.8 °C59 %1016.9 hPa9.7 kmSE (130°)3.5 km/hClear
11:00 PM8 °C3 °C71 %1015.2 hPa10 kmSE (140°)7.2 km/hPartly Cloudy
Hourly data recorded from UTAA, located 0 kilometers away from Ashgabat, Turkmenistan







STORIES FROM OUR PARTNERS